COSMOS 1622

Satellite information

Favourite Embed

Satellite Type and Status

PAYLOADIN ORBIT

Key statistics

Satellite COSMOS 1622 at a glance.

Uptime

14896

Days in orbit

Revolutions

≈ 12.6

Per day

Orbit

LEO

Low Earth Orbit

Inclination

82.6

Latest

Satellite identification and parameters

Extended collection of information and parameters for COSMOS 1622.

Object identification

Identified? True

Debris? False

Object name: COSMOS 1622

International designator: 1985-003F

Object number (NORAD): 15474

Object ID (CCSDS): 15474

Country: COMMONWEALTH OF INDEPENDENT STATES (CIS)

Current information (Y/N): Y

RCS size: MEDIUM

Orbital parameters

Period: 113.942 minutes

Inclination: 82.6091 deg

SMA: 7785.436 km

Apoapsis: 1414.141 km

Periapsis: 1400.462 km

RAAN: 233.5164 deg

Eccentricy: 0.00087849

Argument of periapsis: 352.596 deg

Mean anomaly: 34.9188 deg

Mean motion: 12.63799903 rev/day

Mean motion (dot): 0.00000028 rev/day2

B* drag term: 0.000097257095 1/REarth

Two-line elements (TLE)

Creation date: Oct. 27, 2025, 2:46 a.m.

Reference frame: TEME

Reference center: EARTH

Epoch: Oct. 26, 2025, 6:53 p.m. UTC

TLE line 0: 0 COSMOS 1622

TLE line 1: 1 15474U 85003F 25299.78746713 .00000028 00000-0 97257-4 0 9991

TLE line 2: 2 15474 82.6091 233.5164 0008785 352.5960 34.9188 12.63799903881055

Live tracking on map

Real-time ground track for satellite COSMOS 1622.

In-orbit conjunctions

A list of the most updated potential collisions computed for object COSMOS 1622.

Target Orbit TCA Probability of collision Miss distance Type
COSMOS 2170 LEO 2025-07-23 15:02:59 0.0003277104 46.0 (m) PAYLOAD

Associated space launch

Second generation store-dump military communications satellite

COSMOS 1622 was lifted into orbit during the mission ‘Tsiklon-3 | Strela-3 1 to 6’, on board a Tsiklon-3 space rocket.

The launch took place on Jan. 15, 1985, 2:50 p.m. from 32/1.

For more information about the launch, click the button.

Launch to space Tsiklon-3 | Strela-3 1 to 6
Tsiklon-3 | Strela-3 1 to 6

Agency: N/A

Status: Launch Successful

Launch date: Jan. 15, 1985, 2:50 p.m. UTC

Rocket: Tsiklon-3

Launch pad: 32/1

Location: Plesetsk Cosmodrome, Russian Federation

...

Latest news about this satellite

There are no fresh news available about this satellite. Check back as we update our databases every day.


Newsletter sign-up

Weekly statistics, charts and insights to help you stay on top of the space industry.